EW2485 Weather Reports


Display with metric or nautical units.
time (UTC)temp
F
wind
direction
speed
MPH
gust
MPH
rain 1hr
in
rain 24hr
in
rain mn
in
humidity
%
barometer
mb
20260510120046 47 336 7.0 12.0 0.00 0.33 0.02 82 1012.8
20260510114558 48 337 6.0 13.0 0.00 0.33 0.02 85 1012.7
20260510113020 49 312 7.0 13.0 0.00 0.33 0.02 87 1012.2
20260510111548 48 89 1.0 5.0 0.00 0.33 0.02 87 1011.5
20260510110101 48 20 1.0 4.0 0.00 0.35 0.02 87 1011.2
20260510104542 48 46 1.0 3.0 0.00 0.35 0.02 87 1011.0
20260510103009 48 13 2.0 3.0 0.00 0.35 0.02 87 1010.7
20260510101546 48 135 1.0 3.0 0.00 0.35 0.02 86 1010.4
20260510100028 48 314 2.0 5.0 0.00 0.35 0.02 87 1010.3
20260510094550 47 89 1.0 3.0 0.00 0.35 0.02 87 1010.1
20260510093013 47 89 1.0 3.0 0.00 0.35 0.02 87 1009.9
20260510091539 47 152 1.0 3.0 0.00 0.35 0.02 87 1009.7
20260510090057 47 117 0.0 2.0 0.00 0.35 0.02 86 1009.9
20260510084531 47 178 2.0 3.0 0.00 0.35 0.02 86 1009.8
20260510083051 47 1 1.0 3.0 0.00 0.35 0.02 86 1009.8
20260510081533 47 336 1.0 6.0 0.00 0.35 0.02 86 1009.9
20260510080040 47 1 1.0 4.0 0.00 0.35 0.02 86 1009.6
20260510074505 46 178 1.0 4.0 0.00 0.35 0.02 86 1009.3
20260510073055 46 46 2.0 5.0 0.00 0.35 0.02 85 1009.5
20260510071518 47 340 3.0 5.0 0.00 0.35 0.02 85 1009.3
20260510070051 47 161 2.0 4.0 0.00 0.35 0.02 85 1009.2
20260510064506 47 110 1.0 4.0 0.00 0.35 0.02 85 1009.2
20260510063040 47 108 1.0 3.0 0.00 0.35 0.02 85 1008.8
20260510061550 48 156 2.0 9.0 0.00 0.35 0.02 85 1008.9
20260510060033 48 169 3.0 10.0 0.00 0.35 0.02 85 1009.3
20260510054536 49 172 5.0 11.0 0.00 0.35 0.02 85 1009.4
20260510053106 49 168 4.0 8.0 0.00 0.35 0.02 85 1009.5
20260510051513 49 200 5.0 9.0 0.00 0.35 0.02 85 1009.8
20260510050038 49 152 2.0 8.0 0.02 0.35 0.02 85 1010.0
20260510044502 49 159 3.0 7.0 0.04 0.35 0.02 85 1009.6
20260510043051 49 175 3.0 5.0 0.04 0.35 0.02 85 1009.6
20260510041526 49 178 4.0 8.0 0.08 0.35 0.02 84 1009.5
20260510040053 50 143 1.0 4.0 0.10 0.33 0.33 84 1010.3
20260510034510 50 152 2.0 4.0 0.10 0.31 0.31 84 1010.2
20260510033049 51 105 3.0 7.0 0.10 0.31 0.31 83 1010.3
20260510031504 51 237 5.0 14.0 0.05 0.26 0.27 83 1010.5
20260510030105 52 319 9.0 22.0 0.01 0.22 0.23 82 1010.3
20260510024533 52 213 8.0 15.0 0.00 0.21 0.21 83 1009.1
20260510023010 52 175 7.0 14.0 0.00 0.21 0.21 83 1008.9
20260510021600 52 204 5.0 16.0 0.00 0.21 0.21 83 1008.7
20260510020032 53 199 8.0 17.0 0.00 0.21 0.21 83 1008.6
20260510014550 52 185 9.0 17.0 0.00 0.21 0.21 83 1008.3
20260510013007 52 182 6.0 14.0 0.00 0.21 0.21 84 1008.1
20260510011531 51 155 6.0 11.0 0.00 0.21 0.21 84 1008.0
20260510010048 51 169 4.0 8.0 0.00 0.21 0.21 83 1008.1
20260510004503 52 135 3.0 6.0 0.00 0.21 0.21 83 1007.7
20260510003034 52 46 2.0 10.0 0.00 0.21 0.21 83 1007.5
20260510001548 53 151 4.0 11.0 0.00 0.21 0.21 82 1007.3
20260510000011 54 165 6.0 13.0 0.00 0.21 0.21 82 1007.5
20260509234556 55 175 5.0 14.0 0.00 0.21 0.21 81 1007.5
20260509233033 55 176 8.0 13.0 0.00 0.21 0.21 81 1007.0
20260509231523 55 156 5.0 12.0 0.00 0.21 0.21 81 1006.9
20260509230047 56 167 5.0 11.0 0.00 0.21 0.21 81 1007.3
20260509224519 56 172 5.0 14.0 0.00 0.21 0.21 81 1007.3
20260509223045 56 160 7.0 21.0 0.00 0.21 0.21 81 1007.4
20260509221557 56 170 9.0 16.0 0.00 0.21 0.21 82 1007.5
20260509220015 55 150 10.0 18.0 0.00 0.21 0.21 81 1007.2
20260509214539 55 185 10.0 20.0 0.00 0.21 0.21 82 1007.2
20260509213101 55 167 8.0 17.0 0.00 0.21 0.21 82 1007.2
20260509211513 55 174 6.0 17.0 0.00 0.21 0.21 83 1007.3
20260509210043 54 189 10.0 19.0 0.00 0.21 0.21 82 1007.7
20260509204530 54 178 7.0 16.0 0.00 0.21 0.21 83 1007.8
20260509203007 54 314 6.0 19.0 0.00 0.21 0.21 83 1008.0
20260509201601 54 159 10.0 19.0 0.00 0.21 0.21 83 1008.1
20260509200023 53 161 7.0 16.0 0.00 0.21 0.21 84 1008.2
20260509194541 52 168 8.0 15.0 0.00 0.21 0.21 84 1008.4
20260509193001 52 196 5.0 13.0 0.00 0.21 0.21 84 1008.6
20260509191531 52 194 6.0 16.0 0.00 0.21 0.21 84 1008.7
20260509190051 52 154 5.0 13.0 0.00 0.21 0.21 84 1008.8
20260509184508 52 196 5.0 11.0 0.00 0.21 0.21 83 1008.9
20260509183036 52 176 7.0 15.0 0.00 0.21 0.21 83 1009.0
20260509181553 52 172 4.0 11.0 0.00 0.21 0.21 83 1008.9
20260509180018 51 206 4.0 14.0 0.00 0.21 0.21 83 1009.0
20260509174548 51 178 6.0 13.0 0.00 0.21 0.21 83 1008.9
20260509173032 51 168 3.0 15.0 0.00 0.21 0.21 84 1008.9
20260509171535 51 175 4.0 11.0 0.00 0.21 0.21 84 1008.8
20260509170056 51 162 7.0 14.0 0.00 0.21 0.21 84 1008.8
20260509164526 51 174 9.0 16.0 0.00 0.21 0.21 84 1009.0
20260509163046 51 188 5.0 14.0 0.00 0.21 0.21 85 1009.0
20260509161602 51 186 6.0 15.0 0.00 0.21 0.21 85 1009.3
20260509160029 50 186 9.0 16.0 0.00 0.21 0.21 85 1009.3
20260509154549 50 159 6.0 18.0 0.00 0.21 0.21 85 1009.5
20260509153024 50 178 8.0 14.0 0.00 0.21 0.21 86 1009.6
20260509151606 50 172 7.0 14.0 0.00 0.21 0.21 86 1009.7
20260509150050 49 168 8.0 15.0 0.00 0.23 0.21 86 1009.7
20260509144510 49 164 5.0 12.0 0.02 0.23 0.21 86 1009.8
20260509143042 49 178 6.0 14.0 0.03 0.23 0.21 86 1009.9
20260509141556 49 163 5.0 12.0 0.04 0.23 0.21 86 1010.0
20260509140016 48 150 2.0 8.0 0.04 0.35 0.21 86 1010.2
20260509134545 48 171 4.0 7.0 0.04 0.34 0.19 86 1010.3
20260509133004 48 143 4.0 9.0 0.04 0.33 0.18 86 1010.3
20260509131539 48 169 3.0 6.0 0.04 0.32 0.17 86 1010.4
20260509130104 47 148 3.0 11.0 0.04 0.32 0.16 86 1010.6
20260509124519 47 199 4.0 9.0 0.05 0.31 0.15 86 1010.5
20260509123102 47 178 4.0 8.0 0.06 0.30 0.14 86 1010.6
20260509121543 47 183 4.0 14.0 0.08 0.28 0.13 86 1010.8